Regional Weather Roundup
Issued by NWS

Home | Current Version | Previous Version | Graphics & Text | Print | Product List | Glossary On
Versions: 1 2 3 4 5 6 7 8 9 10 11 12 13 14 15 16 17 18 19 20 21 22 23 24 25 26 27 28 29 30 31 32 33 34 35 36 37 38 39 40 41 42 43 44 45 46 47 48 49 50
000
ASUS43 KBIS 050410
RWRND

NORTH DAKOTA REGIONAL WEATHER ROUNDUP
NATIONAL WEATHER SERVICE BISMARCK ND
1100 PM CDT TUE AUG 04 2015

NOTE: "FAIR" INDICATES FEW OR NO CLOUDS BELOW 12,000 FEET WITH NO
SIGNIFICANT WEATHER AND/OR OBSTRUCTIONS TO VISIBILITY.


NDZ001>003-009>011-017-050500-
NORTHWEST NORTH DAKOTA

CITY           SKY/WX    TMP DP  RH WIND       PRES   REMARKS
WILLISTON      CLOUDY    77  55  46 SE15      29.89S
MINOT          MOCLDY    66  52  60 E9        29.97S
MINOT AFB      MOCLDY    65  55  70 SE13      29.96S
$$

NDZ018>021-031>035-040>046-050500-
SOUTHWEST NORTH DAKOTA

CITY           SKY/WX    TMP DP  RH WIND       PRES   REMARKS
BISMARCK       PTCLDY    71  61  70 SE8       29.97R
DICKINSON      CLOUDY    68  57  68 S6        29.95R
GARRISON         N/A     70  56  61 E14       29.96S
HETTINGER ARPT CLOUDY    72  54  53 SE13      29.98R
$$

NDZ004>008-012>016-024-026-027-054-050500-
NORTHEAST NORTH DAKOTA

CITY           SKY/WX    TMP DP  RH WIND       PRES   REMARKS
GRAND FORKS    CLEAR     66  56  70 NE7       30.03R
GRND FRKS AFB  CLEAR     64  54  69 NE7       30.04R
DEVILS LAKE      N/A    N/A N/A N/A MISG        N/A
$$

NDZ022-023-025-028>030-036>039-047>053-050500-
SOUTHEAST NORTH DAKOTA

CITY           SKY/WX    TMP DP  RH WIND       PRES   REMARKS
FARGO          CLEAR     61  56  83 E6        30.02R
JAMESTOWN      CLEAR     63  56  78 E8        30.02R
$$




USA.gov is the U.S. government's official web portal to all federal, state and local government web resources and services.